Regional Weather Roundup
Issued by NWS

Home | Current Version | Previous Version | Graphics & Text | Print | Product List | Glossary Off
Versions: 1 2 3 4 5 6 7 8 9 10 11 12 13 14 15 16 17 18 19 20 21 22 23 24 25 26 27 28 29 30 31 32 33 34 35 36 37 38 39 40 41 42 43 44 45 46 47 48 49 50

000
ASUS43 KDMX 220001
RWRIA

WEATHER ROUNDUP FOR IOWA
NATIONAL WEATHER SERVICE DES MOINES IA
700 PM CDT SAT OCT 21 2017

NOTE: "FAIR" INDICATES FEW OR NO CLOUDS BELOW 12,000 FEET WITH NO
SIGNIFICANT WEATHER AND/OR OBSTRUCTIONS TO VISIBILITY.

* - THESE STATIONS ARE NOT NWS STATIONS...THUS NOT UNDER NWS
QUALITY CONTROL.  THEY ALSO DO NOT REPORT WEATHER SUCH
AS PRECIPITATION OR FOG.

IAZ001>003-012>014-020>022-031>034-043>046-220100-
   NORTHWEST IOWA

CITY           SKY/WX    TMP DP  RH WIND       PRES   REMARKS
CHEROKEE *     CLOUDY    54  43  68 NW8       29.85R
DENISON *      CLOUDY    55  45  67 NW12      29.87R
LE MARS *      PTCLDY    54  41  62 W10       29.87R
ORANGE CITY *  CLOUDY    54  45  71 NW14G20   29.85R
SHELDON *      CLOUDY    52  43  71 W8        29.82R
SIOUX CITY     CLEAR     53  42  66 NW10      29.88R
6HR MIN TEMP:  53; 6HR MAX TEMP:  66; 6HR PCP:  0.04;

SPENCER        LGT RAIN  54  44  69 W13       29.81R
6HR MIN TEMP:  54; 6HR MAX TEMP:  72; 6HR PCP:  0.05;

STORM LAKE *   MOCLDY    54  45  71 W8        29.84R
$$

IAZ055>058-069>071-079>083-090>094-220100-
   SOUTHWEST IOWA

CITY           SKY/WX    TMP DP  RH WIND       PRES   REMARKS
ATLANTIC *     CLOUDY    57  48  72 NW14      29.84R
AUDUBON *      CLOUDY    55  50  82 NW5       29.85R
CLARINDA *     CLOUDY    57  52  82 N9G16     29.86S
COUNCIL BLFS * CLOUDY    55  43  62 NW16      29.86R
CRESTON *      RAIN      57  55  94 NW15G26   29.81R
HARLAN  *      CLOUDY    55  45  67 NW8       29.89R
LAMONI         CLOUDY    70  64  81 S12       29.78F
6HR MIN TEMP:  68; 6HR MAX TEMP:  74; 6HR PCP:  0.01;

RED OAK *      CLOUDY    59  48  67 NW10G20   29.85R
SHENANDOAH *   CLOUDY    59  48  67 NW12      29.87R
$$

IAZ047>049-059>061-072>074-084-220100-
   CENTRAL IOWA

CITY           SKY/WX    TMP DP  RH WIND       PRES   REMARKS
AMES           LGT RAIN  71  64  78 S14       29.76R
6HR MIN TEMP:  69; 6HR MAX TEMP:  73; 6HR PCP: TRACE;

ANKENY *       DRIZZLE   68  64  88 S10       29.78R
BOONE *        LGT RAIN  59  57  94 W16       29.79R
CHARITON *     CLOUDY    72  63  73 S14G21    29.78F
DES MOINES     CLOUDY    69  65  86 S6        29.76S THUNDER
6HR MIN TEMP:  69; 6HR MAX TEMP:  75; 6HR PCP:  0.20;

GRINNELL*      CLOUDY    72  61  68 S15       29.81F
KNOXVILLE *    CLOUDY    73  61  64 S14       29.77F
MARSHALLTOWN   TSTM      69  64  84 S13       29.76F
6HR MIN TEMP:  69; 6HR MAX TEMP:  73; 6HR PCP:  0.02;

NEWTON *       CLOUDY    70  63  78 S13       29.78F
PELLA *        CLOUDY    73  61  65 S14       29.80F
PERRY *        LGT RAIN  56  55  95 W8G16     29.83R
$$

IAZ004>006-015-016-023>025-035-036-220100-
   NORTH CENTRAL IOWA

CITY           SKY/WX    TMP DP  RH WIND       PRES   REMARKS
ALGONA *       CLOUDY    57  52  82 NW10      29.80R
CLARION *      CLOUDY    57  57 100 NW20G25   29.77R
ESTHERVILLE    CLOUDY    55  46  71 NW9G18    29.79R
6HR MIN TEMP:  55; 6HR MAX TEMP:  70; 6HR PCP:  0.07;

MASON CITY     CLOUDY    68  60  75 S14       29.75S
6HR MIN TEMP:  64; 6HR MAX TEMP:  69;

FOREST CITY *  LGT RAIN  59  55  88 W13       29.77R
WEBSTER CITY * LGT RAIN  57  54  88 NW13G21   29.77R
IOWA FALLS *   CLOUDY    69  63  81 SE12      29.76F
$$

IAZ007>011-017>019-026>030-037>042-050>054-066-220100-
   NORTHEAST IOWA

CITY           SKY/WX    TMP DP  RH WIND       PRES   REMARKS
CEDAR RAPIDS   MOCLDY    74  61  63 S9        29.83R
6HR MIN TEMP:  74; 6HR MAX TEMP:  79; 6HR PCP: TRACE;

CHARLES CITY * CLOUDY    70  61  73 S10       29.76F
CLINTON *      MOCLDY    73  61  65 S14       29.91R
DECORAH *      CLOUDY    70  61  73 S10       29.79F
DUBUQUE        CLOUDY    72  60  66 S13       29.87R
6HR MIN TEMP:  72; 6HR MAX TEMP:  76; 6HR PCP: TRACE;

MONTICELLO *   CLOUDY    73  61  64 S14       29.85R
OELWEIN *      CLOUDY    70  63  78 SE12      29.80F
WATERLOO       CLOUDY    70  60  70 S10       29.77F
6HR MIN TEMP:  68; 6HR MAX TEMP:  71;

$$

IAZ064-065-067-068-078-220100-
   EAST CENTRAL IOWA

CITY           SKY/WX    TMP DP  RH WIND       PRES   REMARKS
DAVENPORT      MOCLDY    74  60  61 S14G23    29.92R
6HR MIN TEMP:  74; 6HR MAX TEMP:  81;

IOWA CITY      CLOUDY    76  61  59 S12       29.86R
6HR MIN TEMP:  76; 6HR MAX TEMP:  81;

MUSCATINE *    PTCLDY    75  61  60 MISG      29.87R
QUAD CITIES    PTCLDY    74  60  61 S14       29.90R
6HR MIN TEMP:  74; 6HR MAX TEMP:  81;

$$

IAZ062-063-075>077-085>089-095>099-220100-
   SOUTHEAST IOWA

CITY           SKY/WX    TMP DP  RH WIND       PRES   REMARKS
BURLINGTON     PTCLDY    73  63  70 S12       29.90R
6HR MIN TEMP:  73; 6HR MAX TEMP:  80;

FAIRFIELD *    CLEAR     73  59  60 S13       29.85R
FORT MADISON * CLEAR     73  63  68 S8        29.90R
KEOKUK *       MOCLDY    75  63  64 S10       29.89R
OSKALOOSA *    MOCLDY    70  60  72 S12       29.82F
OTTUMWA        CLOUDY    72  61  68 S12       29.82S
6HR MIN TEMP:  72; 6HR MAX TEMP:  80; 6HR PCP: TRACE;

WASHINGTON *   CLEAR     73  61  64 S10       29.86S
$$

ABBREVIATIONS USED IN REMARKS
   TC - TEMPERATURES IN CELSIUS
  WCI - WIND CHILL INDEX
   HX - HEAT INDEX
  VSB - VISIBILITY
$$





USA.gov is the U.S. government's official web portal to all federal, state and local government web resources and services.